Weather in Ekonda

Russia / Krasnoyarsk Krai     65°45′15″N   105°19′41″E
temp.,
°C
wind,
m/s
gust,
m/s
humid.,
%
clouds,
%
prec.,
mm/h
press.,
hPa
HPBL,
m
24 july, sat
sat2401:00+16w337899 0.1 101136
04:00+16nnw2280100 0.0 101217
07:00+18nnw117041 0.0 1013415
10:00+21wsw126182 0.1 10121100
13:00+24w23455 0.1 10121782
16:00+25w45385 0.0 10111966
19:00+24w23504 0.0 101182
22:00+19w33620 0.0 101218
25 july, sun
sun2501:00+19sw446073 0.0 101226
04:00+20sw345996 0.0 101246
07:00+21sw3562100 0.0 101395
10:00+25wsw565043 0.0 1012644
13:00+28wsw663713 0.0 10112347
16:00+28wsw553532 0.0 10112328
19:00+26w3447100 0.0 101173
22:00+22sw44570 0.0 101121
26 july, mon
mon2601:00+22sw4655100 0.0 101173
04:00+22ssw466057 0.0 1010100
07:00+24sw475634 0.0 1011355
10:00+28wsw55420 0.0 10101493
13:00+29sw44370 0.0 10092356
16:00+29w34352 0.0 10082397
19:00+28w224514 0.0 100842
22:00+23sw225639 0.0 100816
27 july, tue
tue2701:00+21ssw226023 0.0 100811
04:00+21ssw22622 0.0 100811
07:00+25s224915 0.0 1008277
10:00+28se34395 0.0 10071849
13:00+29sse23345 0.0 10062129
16:00+30s23335 0.0 10052378
19:00+29s224563 0.0 100427
22:00+26se3445100 0.0 100543
28 july, wed
wed2801:00+24se224993 0.0 100515
04:00+23e225546 0.0 100517
07:00+26ese344663 0.0 1005310
10:00+27ese764272 0.0 10051006
13:00+29ese874124 0.0 10051617
16:00+28ese774573 0.0 10051249
19:00+25ese695498 0.0 1006251
22:00+22ese8135748 0.0 1007408